Flag for Germany Weather past 2 weeks in Brühl (Rhineland), North Rhine-Westphalia, Germany

Now
73 °F

Scattered clouds.


Feels Like: 76 °F
Forecast: 56 / 78 °F
Wind: 3 mph from North

Location: Noervenich

Current Time: Jul 25, 2014 at 7:00:29 PM

Latest Report: Jul 25, 2014 at 6:00 PM


Visibility: 16 mi

Pressure: 29.90 "Hg

Humidity: 61%

Dew point: 59 °F

Location of Brühl (Rhineland)Location

Historic Weather in Brühl (Rhineland) — Graph

°F

Brühl (Rhineland) temperature yesterday

Maximum temperature yesterday: 79 °F (at 2:00 PM)
Minimum temperature yesterday: 61 °F (at 6:00 AM)
Average temperature yesterday: 69 °F

Past Weeks' High & Low Weather Summary

 TemperatureHumidityPressure
High93 °F (Jul 18, 6:00 PM)99% (Jul 22, 1:00 AM)30.19 "Hg (Jul 22, 1:00 AM)
Low56 °F (Jul 14, 6:00 AM)27% (Jul 18, 7:00 PM)29.74 "Hg (Jul 13, 7:00 PM)
Average69 °F75%29.97 "Hg
* Reported Jul 10 6:00 PM — Jul 25 6:00 PM, Brühl (Rhineland), Weather by CustomWeather, © 2014

Note: Actual official high and low records may vary slightly from our data, if they occured in-between our weather recording intervals... More about our weather records

Advertising

Brühl (Rhineland) weather history for previous 24 hours

 ConditionsComfort  
Time TempWeatherWind HumidityBarometerVisibility
6:00 PM
Jul 25
73 °FScattered clouds.3 mph61%29.90 "Hg16 mi
4:00 PM73 °FPartly sunny.2 mph61%29.92 "Hg16 mi
3:00 PM71 °FPartly sunny.3 mph65%29.92 "Hg16 mi
2:00 PM71 °FPartly sunny.3 mph67%29.93 "Hg16 mi
1:00 PM70 °FPartly sunny.2 mph68%29.95 "Hg16 mi
12:00 PM70 °FPartly sunny.2 mph67%29.96 "Hg16 mi
10:00 AM66 °FPassing clouds.2 mph77%29.98 "Hg12 mi
9:00 AM64 °FPassing clouds.1 mph81%29.97 "Hg12 mi
7:00 AM58 °FFog.No wind95%29.97 "Hg11 mi
6:00 AM56 °FFog.No wind96%29.97 "Hg11 mi
4:00 AM59 °FPassing clouds.1 mph92%29.97 "Hg25 mi
3:00 AM60 °FPassing clouds.No wind91%29.98 "Hg25 mi
2:00 AM61 °FOvercast.N/A88%29.99 "Hg25 mi
1:00 AM61 °FOvercast.No wind87%30.00 "Hg19 mi
12:00 AM62 °FOvercast.1 mph83%29.99 "Hg19 mi
10:00 PM
Jul 24
65 °FPassing clouds.2 mph76%29.98 "Hg28 mi
9:00 PM66 °FThunderstorms. Partly sunny.2 mph76%29.97 "Hg28 mi
8:00 PM67 °FThundershowers. Overcast.2 mph80%29.94 "Hg22 mi
7:00 PM69 °FThunderstorms. Overcast.1 mph82%29.95 "Hg16 mi
Weather by CustomWeather, © 2014

See weather overviewHow to use our weather pages